Time,TemperatureF,DewpointF,PressureIn,WindDirection,WindDirectionDegrees,WindSpeedMPH,WindSpeedGustMPH,Humidity,HourlyPrecipIn,Conditions,Clouds,dailyrainin,SoftwareType,DateUTC
2013-08-31 00:01:00,68.4,67.5,29.84,ESE,117,0.0,0.0,97,0.00,,,0.00,Wunderground v.1.15,2013-08-31 04:01:00,
2013-08-31 00:02:00,68.4,67.5,29.84,ESE,117,0.0,0.0,97,0.00,,,0.00,Wunderground v.1.15,2013-08-31 04:02:00,
2013-08-31 00:05:00,68.4,67.5,29.84,ESE,117,0.0,0.0,97,0.00,,,0.00,Wunderground v.1.15,2013-08-31 04:05:00,
2013-08-31 00:09:00,68.5,67.6,29.85,ESE,117,0.0,0.0,97,0.00,,,0.00,Wunderground v.1.15,2013-08-31 04:09:00,
2013-08-31 00:11:00,68.5,67.6,29.84,ESE,117,0.0,0.0,97,0.00,,,0.00,Wunderground v.1.15,2013-08-31 04:11:00,
2013-08-31 00:16:00,68.6,68.0,29.85,ESE,117,0.0,0.0,98,0.00,,,0.00,Wunderground v.1.15,2013-08-31 04:16:00,
2013-08-31 00:20:00,68.6,68.0,29.85,SE,127,0.0,0.0,98,0.00,,,0.00,Wunderground v.1.15,2013-08-31 04:20:00,
2013-08-31 00:25:00,68.6,67.7,29.84,SE,127,0.0,0.0,97,0.00,,,0.00,Wunderground v.1.15,2013-08-31 04:25:00,
2013-08-31 00:31:00,68.6,67.7,29.84,SE,127,0.0,0.0,97,0.00,,,0.00,Wunderground v.1.15,2013-08-31 04:31:00,
2013-08-31 00:36:00,68.7,67.8,29.84,SSE,155,0.0,0.0,97,0.00,,,0.00,Wunderground v.1.15,2013-08-31 04:36:00,
2013-08-31 00:42:00,68.8,68.2,29.84,WSW,248,0.0,0.0,98,0.00,,,0.00,Wunderground v.1.15,2013-08-31 04:42:00,
2013-08-31 00:48:00,68.9,68.3,29.84,SW,229,0.0,0.0,98,0.00,,,0.00,Wunderground v.1.15,2013-08-31 04:48:00,
2013-08-31 00:54:00,69.0,68.4,29.84,SSW,195,0.0,0.0,98,0.00,,,0.00,Wunderground v.1.15,2013-08-31 04:54:00,
2013-08-31 01:00:00,69.0,68.4,29.84,South,191,0.0,0.0,98,0.00,,,0.00,Wunderground v.1.15,2013-08-31 05:00:00,
2013-08-31 01:06:00,69.0,68.4,29.83,South,191,0.0,0.0,98,0.00,,,0.00,Wunderground v.1.15,2013-08-31 05:06:00,
2013-08-31 01:12:00,68.9,68.0,29.83,South,191,0.0,0.0,97,0.00,,,0.00,Wunderground v.1.15,2013-08-31 05:12:00,
2013-08-31 01:18:00,68.8,67.9,29.83,South,191,0.0,0.0,97,0.00,,,0.00,Wunderground v.1.15,2013-08-31 05:18:00,
2013-08-31 01:24:00,69.0,68.4,29.83,SW,220,0.0,1.0,98,0.00,,,0.00,Wunderground v.1.15,2013-08-31 05:24:00,
2013-08-31 01:30:00,69.1,68.5,29.83,South,179,0.0,0.0,98,0.00,,,0.00,Wunderground v.1.15,2013-08-31 05:30:00,
2013-08-31 01:36:00,69.2,68.6,29.83,SSW,205,0.0,0.0,98,0.00,,,0.00,Wunderground v.1.15,2013-08-31 05:36:00,
2013-08-31 01:42:00,69.3,68.7,29.83,SSW,211,0.0,1.0,98,0.00,,,0.00,Wunderground v.1.15,2013-08-31 05:42:00,
2013-08-31 01:48:00,69.4,68.8,29.83,SSW,208,1.0,3.0,98,0.00,,,0.00,Wunderground v.1.15,2013-08-31 05:48:00,
2013-08-31 01:54:00,69.5,68.9,29.83,SW,222,1.0,3.0,98,0.00,,,0.00,Wunderground v.1.15,2013-08-31 05:54:00,
2013-08-31 02:00:00,69.6,69.0,29.83,WSW,238,1.0,1.0,98,0.00,,,0.00,Wunderground v.1.15,2013-08-31 06:00:00,
2013-08-31 02:05:00,69.6,69.0,29.83,South,174,1.0,2.0,98,0.00,,,0.00,Wunderground v.1.15,2013-08-31 06:05:00,
2013-08-31 02:11:00,69.6,69.0,29.83,SW,225,1.0,2.0,98,0.00,,,0.00,Wunderground v.1.15,2013-08-31 06:11:00,
2013-08-31 02:16:00,69.7,69.1,29.83,SSW,208,1.0,2.0,98,0.00,,,0.00,Wunderground v.1.15,2013-08-31 06:16:00,
2013-08-31 02:22:00,69.8,69.2,29.83,SSW,203,1.0,2.0,98,0.00,,,0.00,Wunderground v.1.15,2013-08-31 06:22:00,
2013-08-31 02:28:00,69.8,69.2,29.82,SSW,197,1.0,2.0,98,0.00,,,0.00,Wunderground v.1.15,2013-08-31 06:28:00,
2013-08-31 02:33:00,69.8,69.2,29.83,SSW,207,1.0,3.0,98,0.00,,,0.00,Wunderground v.1.15,2013-08-31 06:33:00,
2013-08-31 02:39:00,69.9,69.3,29.82,SSW,208,1.0,3.0,98,0.00,,,0.00,Wunderground v.1.15,2013-08-31 06:39:00,
2013-08-31 02:44:00,70.0,69.4,29.82,SSW,205,1.0,2.0,98,0.00,,,0.00,Wunderground v.1.15,2013-08-31 06:44:00,
2013-08-31 02:50:00,70.1,69.5,29.83,SW,214,1.0,1.0,98,0.00,,,0.00,Wunderground v.1.15,2013-08-31 06:50:00,
2013-08-31 02:56:00,70.1,69.5,29.83,SW,231,1.0,2.0,98,0.00,,,0.00,Wunderground v.1.15,2013-08-31 06:56:00,
2013-08-31 03:01:00,70.2,69.6,29.83,SW,219,1.0,1.0,98,0.00,,,0.00,Wunderground v.1.15,2013-08-31 07:01:00,
2013-08-31 03:06:00,70.3,69.7,29.83,SW,218,1.0,1.0,98,0.00,,,0.00,Wunderground v.1.15,2013-08-31 07:06:00,
2013-08-31 03:12:00,70.3,69.7,29.83,SW,233,1.0,1.0,98,0.00,,,0.00,Wunderground v.1.15,2013-08-31 07:12:00,
2013-08-31 03:18:00,70.4,69.8,29.83,SW,224,1.0,2.0,98,0.00,,,0.00,Wunderground v.1.15,2013-08-31 07:18:00,
2013-08-31 03:24:00,70.5,69.9,29.83,SSE,162,1.0,2.0,98,0.00,,,0.00,Wunderground v.1.15,2013-08-31 07:24:00,
2013-08-31 03:30:00,70.5,69.6,29.82,South,172,1.0,1.0,97,0.00,,,0.00,Wunderground v.1.15,2013-08-31 07:30:00,
2013-08-31 03:36:00,70.5,69.6,29.82,SSW,201,1.0,3.0,97,0.00,,,0.00,Wunderground v.1.15,2013-08-31 07:36:00,
2013-08-31 03:42:00,70.5,69.6,29.82,SW,219,2.0,3.0,97,0.00,,,0.00,Wunderground v.1.15,2013-08-31 07:42:00,
2013-08-31 03:48:00,70.5,69.6,29.82,SSE,157,2.0,3.0,97,0.00,,,0.00,Wunderground v.1.15,2013-08-31 07:48:00,
2013-08-31 03:54:00,70.5,69.6,29.82,SSW,193,2.0,3.0,97,0.00,,,0.00,Wunderground v.1.15,2013-08-31 07:54:00,
2013-08-31 04:00:00,70.6,69.7,29.82,South,191,2.0,2.0,97,0.00,,,0.00,Wunderground v.1.15,2013-08-31 08:00:00,
2013-08-31 04:05:00,70.6,69.7,29.82,SW,218,2.0,3.0,97,0.00,,,0.00,Wunderground v.1.15,2013-08-31 08:05:00,
2013-08-31 04:11:00,70.7,69.8,29.82,SSW,203,2.0,5.0,97,0.00,,,0.00,Wunderground v.1.15,2013-08-31 08:11:00,
2013-08-31 04:17:00,70.8,69.9,29.82,SSW,207,2.0,5.0,97,0.00,,,0.00,Wunderground v.1.15,2013-08-31 08:17:00,
2013-08-31 04:22:00,70.8,69.9,29.82,WSW,242,1.0,2.0,97,0.00,,,0.00,Wunderground v.1.15,2013-08-31 08:22:00,
2013-08-31 04:28:00,70.9,70.0,29.82,West,259,2.0,4.0,97,0.00,,,0.00,Wunderground v.1.15,2013-08-31 08:28:00,
2013-08-31 04:34:00,70.9,70.0,29.82,SW,233,2.0,4.0,97,0.00,,,0.00,Wunderground v.1.15,2013-08-31 08:34:00,
2013-08-31 04:40:00,70.9,70.0,29.82,West,264,1.0,1.0,97,0.00,,,0.00,Wunderground v.1.15,2013-08-31 08:40:00,
2013-08-31 04:46:00,70.9,70.0,29.82,SW,229,0.0,1.0,97,0.00,,,0.00,Wunderground v.1.15,2013-08-31 08:46:00,
2013-08-31 04:52:00,70.9,70.0,29.82,South,173,0.0,3.0,97,0.00,,,0.00,Wunderground v.1.15,2013-08-31 08:52:00,
2013-08-31 04:58:00,71.0,70.1,29.83,SW,235,1.0,3.0,97,0.00,,,0.00,Wunderground v.1.15,2013-08-31 08:58:00,
2013-08-31 05:04:00,71.0,70.1,29.83,SSW,212,1.0,3.0,97,0.00,,,0.00,Wunderground v.1.15,2013-08-31 09:04:00,
2013-08-31 05:10:00,71.0,69.8,29.83,SSW,208,1.0,1.0,96,0.00,,,0.00,Wunderground v.1.15,2013-08-31 09:10:00,
2013-08-31 05:15:00,71.0,69.8,29.82,SSE,160,1.0,2.0,96,0.00,,,0.00,Wunderground v.1.15,2013-08-31 09:15:00,
2013-08-31 05:21:00,71.1,69.9,29.83,West,259,2.0,2.0,96,0.00,,,0.00,Wunderground v.1.15,2013-08-31 09:21:00,
2013-08-31 05:27:00,71.1,69.9,29.83,SW,225,2.0,3.0,96,0.00,,,0.00,Wunderground v.1.15,2013-08-31 09:27:00,
2013-08-31 05:32:00,71.1,69.9,29.82,SSW,211,1.0,2.0,96,0.00,,,0.00,Wunderground v.1.15,2013-08-31 09:32:00,
2013-08-31 05:38:00,71.2,70.0,29.83,SSW,208,2.0,2.0,96,0.00,,,0.00,Wunderground v.1.15,2013-08-31 09:38:00,
2013-08-31 05:44:00,71.2,70.0,29.83,WSW,243,2.0,5.0,96,0.00,,,0.00,Wunderground v.1.15,2013-08-31 09:44:00,
2013-08-31 05:50:00,71.2,70.0,29.83,SSW,201,1.0,3.0,96,0.00,,,0.00,Wunderground v.1.15,2013-08-31 09:50:00,
2013-08-31 05:56:00,71.2,70.0,29.83,WSW,246,1.0,3.0,96,0.00,,,0.00,Wunderground v.1.15,2013-08-31 09:56:00,
2013-08-31 06:02:00,71.2,70.0,29.83,SW,218,2.0,5.0,96,0.00,,,0.00,Wunderground v.1.15,2013-08-31 10:02:00,
2013-08-31 06:08:00,71.3,70.1,29.83,SW,219,2.0,5.0,96,0.00,,,0.00,Wunderground v.1.15,2013-08-31 10:08:00,
2013-08-31 06:14:00,71.2,70.0,29.82,SSW,204,1.0,3.0,96,0.00,,,0.00,Wunderground v.1.15,2013-08-31 10:14:00,
2013-08-31 06:20:00,71.3,70.1,29.82,SW,224,2.0,3.0,96,0.00,,,0.00,Wunderground v.1.15,2013-08-31 10:20:00,
2013-08-31 06:26:00,71.3,70.1,29.83,WSW,250,2.0,4.0,96,0.00,,,0.00,Wunderground v.1.15,2013-08-31 10:26:00,
2013-08-31 06:32:00,71.3,70.1,29.83,SSW,197,2.0,3.0,96,0.00,,,0.00,Wunderground v.1.15,2013-08-31 10:32:00,
2013-08-31 06:38:00,71.3,70.1,29.83,SW,225,3.0,8.0,96,0.00,,,0.00,Wunderground v.1.15,2013-08-31 10:38:00,
2013-08-31 06:44:00,71.4,70.2,29.83,SW,221,2.0,3.0,96,0.00,,,0.00,Wunderground v.1.15,2013-08-31 10:44:00,
2013-08-31 06:50:00,71.4,69.9,29.83,SW,224,2.0,2.0,95,0.00,,,0.00,Wunderground v.1.15,2013-08-31 10:50:00,
2013-08-31 06:56:00,71.4,70.2,29.83,SW,215,2.0,5.0,96,0.00,,,0.00,Wunderground v.1.15,2013-08-31 10:56:00,
2013-08-31 07:02:00,71.4,69.9,29.83,West,263,2.0,2.0,95,0.00,,,0.00,Wunderground v.1.15,2013-08-31 11:02:00,
2013-08-31 07:08:00,71.4,69.9,29.83,WSW,246,1.0,2.0,95,0.00,,,0.00,Wunderground v.1.15,2013-08-31 11:08:00,
2013-08-31 07:13:00,71.5,70.0,29.83,SW,218,1.0,2.0,95,0.00,,,0.00,Wunderground v.1.15,2013-08-31 11:13:00,
2013-08-31 07:19:00,71.5,70.0,29.83,SW,228,1.0,2.0,95,0.00,,,0.00,Wunderground v.1.15,2013-08-31 11:19:00,
2013-08-31 07:25:00,71.5,70.0,29.83,SSW,212,0.0,1.0,95,0.00,,,0.00,Wunderground v.1.15,2013-08-31 11:25:00,
2013-08-31 07:31:00,71.5,70.0,29.83,SSW,197,1.0,2.0,95,0.00,,,0.00,Wunderground v.1.15,2013-08-31 11:31:00,
2013-08-31 07:37:00,71.6,70.1,29.83,SW,226,1.0,3.0,95,0.00,,,0.00,Wunderground v.1.15,2013-08-31 11:37:00,
2013-08-31 07:43:00,71.7,70.2,29.83,SW,226,1.0,1.0,95,0.00,,,0.00,Wunderground v.1.15,2013-08-31 11:43:00,
2013-08-31 07:49:00,71.8,70.3,29.83,SW,217,1.0,4.0,95,0.00,,,0.00,Wunderground v.1.15,2013-08-31 11:49:00,
2013-08-31 07:55:00,71.9,70.4,29.83,SW,218,2.0,3.0,95,0.00,,,0.00,Wunderground v.1.15,2013-08-31 11:55:00,
2013-08-31 08:01:00,72.0,70.5,29.83,WSW,250,2.0,2.0,95,0.00,,,0.00,Wunderground v.1.15,2013-08-31 12:01:00,
2013-08-31 08:06:00,72.2,70.7,29.83,SSW,203,2.0,2.0,95,0.00,,,0.00,Wunderground v.1.15,2013-08-31 12:06:00,
2013-08-31 08:11:00,72.3,70.8,29.83,SSW,212,2.0,4.0,95,0.00,,,0.00,Wunderground v.1.15,2013-08-31 12:11:00,
2013-08-31 08:17:00,72.4,70.6,29.83,SW,229,2.0,4.0,94,0.00,,,0.00,Wunderground v.1.15,2013-08-31 12:17:00,
2013-08-31 08:23:00,72.5,70.7,29.83,SSW,212,1.0,2.0,94,0.00,,,0.00,Wunderground v.1.15,2013-08-31 12:23:00,
2013-08-31 08:29:00,72.5,70.7,29.83,SSW,205,1.0,2.0,94,0.00,,,0.00,Wunderground v.1.15,2013-08-31 12:29:00,
2013-08-31 09:01:00,73.1,71.0,29.84,SW,234,1.0,1.0,93,0.00,,,0.00,Wunderground v.1.15,2013-08-31 13:01:00,
2013-08-31 09:07:00,73.2,71.1,29.84,South,174,1.0,4.0,93,0.00,,,0.00,Wunderground v.1.15,2013-08-31 13:07:00,
2013-08-31 09:12:00,73.4,71.3,29.84,WSW,239,1.0,1.0,93,0.00,,,0.00,Wunderground v.1.15,2013-08-31 13:12:00,
2013-08-31 09:18:00,73.8,71.6,29.83,West,262,1.0,3.0,93,0.00,,,0.00,Wunderground v.1.15,2013-08-31 13:18:00,
2013-08-31 09:23:00,73.9,71.4,29.83,SW,224,2.0,6.0,92,0.00,,,0.00,Wunderground v.1.15,2013-08-31 13:23:00,
2013-08-31 09:28:00,74.0,71.2,29.83,SW,222,3.0,6.0,91,0.00,,,0.00,Wunderground v.1.15,2013-08-31 13:28:00,
2013-08-31 09:34:00,74.2,71.7,29.83,West,267,3.0,4.0,92,0.00,,,0.00,Wunderground v.1.15,2013-08-31 13:34:00,
2013-08-31 09:40:00,74.3,71.5,29.83,SW,226,1.0,3.0,91,0.00,,,0.00,Wunderground v.1.15,2013-08-31 13:40:00,
2013-08-31 09:46:00,74.5,71.7,29.84,WSW,245,1.0,3.0,91,0.00,,,0.00,Wunderground v.1.15,2013-08-31 13:46:00,
2013-08-31 09:51:00,74.7,71.6,29.83,SW,236,2.0,3.0,90,0.00,,,0.00,Wunderground v.1.15,2013-08-31 13:51:00,
2013-08-31 09:57:00,75.1,72.0,29.83,SW,219,2.0,4.0,90,0.00,,,0.00,Wunderground v.1.15,2013-08-31 13:57:00,
2013-08-31 10:03:00,75.3,72.2,29.84,SW,217,3.0,4.0,90,0.00,,,0.00,Wunderground v.1.15,2013-08-31 14:03:00,
2013-08-31 10:09:00,75.5,72.0,29.83,WNW,282,2.0,4.0,89,0.00,,,0.00,Wunderground v.1.15,2013-08-31 14:09:00,
2013-08-31 10:15:00,75.9,72.4,29.84,West,271,1.0,4.0,89,0.00,,,0.00,Wunderground v.1.15,2013-08-31 14:15:00,
2013-08-31 10:21:00,76.2,72.4,29.84,SW,232,1.0,4.0,88,0.00,,,0.00,Wunderground v.1.15,2013-08-31 14:21:00,
2013-08-31 10:27:00,76.4,72.6,29.84,WSW,240,2.0,4.0,88,0.00,,,0.00,Wunderground v.1.15,2013-08-31 14:27:00,
2013-08-31 10:32:00,76.5,72.7,29.84,South,184,2.0,4.0,88,0.00,,,0.00,Wunderground v.1.15,2013-08-31 14:32:00,
2013-08-31 10:38:00,76.9,73.1,29.84,SSW,198,2.0,4.0,88,0.00,,,0.00,Wunderground v.1.15,2013-08-31 14:38:00,
2013-08-31 10:44:00,77.1,72.9,29.84,WSW,250,2.0,4.0,87,0.00,,,0.00,Wunderground v.1.15,2013-08-31 14:44:00,
2013-08-31 10:50:00,77.1,72.6,29.84,SW,236,1.0,4.0,86,0.00,,,0.00,Wunderground v.1.15,2013-08-31 14:50:00,
2013-08-31 10:56:00,77.1,72.6,29.84,SW,232,2.0,4.0,86,0.00,,,0.00,Wunderground v.1.15,2013-08-31 14:56:00,
2013-08-31 11:02:00,76.7,72.5,29.84,SW,229,2.0,4.0,87,0.00,,,0.00,Wunderground v.1.15,2013-08-31 15:02:00,
2013-08-31 11:08:00,76.2,72.0,29.84,WSW,240,3.0,5.0,87,0.00,,,0.00,Wunderground v.1.15,2013-08-31 15:08:00,
2013-08-31 11:13:00,75.8,72.3,29.84,SW,226,3.0,7.0,89,0.00,,,0.00,Wunderground v.1.15,2013-08-31 15:13:00,
2013-08-31 11:19:00,75.6,72.1,29.83,South,189,3.0,7.0,89,0.00,,,0.00,Wunderground v.1.15,2013-08-31 15:19:00,
2013-08-31 11:25:00,75.5,72.0,29.83,SSW,211,2.0,4.0,89,0.00,,,0.00,Wunderground v.1.15,2013-08-31 15:25:00,
2013-08-31 11:31:00,75.5,72.0,29.83,WSW,246,2.0,4.0,89,0.00,,,0.00,Wunderground v.1.15,2013-08-31 15:31:00,
2013-08-31 11:37:00,75.3,71.8,29.83,WSW,253,3.0,4.0,89,0.00,,,0.00,Wunderground v.1.15,2013-08-31 15:37:00,
2013-08-31 11:43:00,75.1,71.6,29.83,WSW,255,3.0,5.0,89,0.00,,,0.00,Wunderground v.1.15,2013-08-31 15:43:00,
2013-08-31 11:49:00,75.0,71.9,29.83,SW,222,3.0,5.0,90,0.00,,,0.00,Wunderground v.1.15,2013-08-31 15:49:00,
2013-08-31 11:55:00,75.0,71.5,29.83,SSW,200,2.0,5.0,89,0.00,,,0.00,Wunderground v.1.15,2013-08-31 15:55:00,
2013-08-31 12:01:00,74.9,71.4,29.83,SSW,195,3.0,5.0,89,0.00,,,0.00,Wunderground v.1.15,2013-08-31 16:01:00,
2013-08-31 12:06:00,75.1,71.6,29.83,WSW,238,3.0,5.0,89,0.00,,,0.00,Wunderground v.1.15,2013-08-31 16:06:00,
2013-08-31 12:12:00,75.1,71.6,29.83,SW,221,2.0,7.0,89,0.00,,,0.00,Wunderground v.1.15,2013-08-31 16:12:00,
2013-08-31 12:18:00,75.2,71.7,29.83,SSW,212,4.0,7.0,89,0.00,,,0.00,Wunderground v.1.15,2013-08-31 16:18:00,
2013-08-31 12:24:00,75.7,71.9,29.83,WSW,242,3.0,5.0,88,0.00,,,0.00,Wunderground v.1.15,2013-08-31 16:24:00,
2013-08-31 12:30:00,76.1,72.3,29.83,West,262,2.0,2.0,88,0.00,,,0.00,Wunderground v.1.15,2013-08-31 16:30:00,
2013-08-31 12:36:00,76.5,72.3,29.83,West,275,2.0,5.0,87,0.00,,,0.00,Wunderground v.1.15,2013-08-31 16:36:00,
2013-08-31 12:42:00,77.0,72.8,29.82,South,190,3.0,5.0,87,0.00,,,0.00,Wunderground v.1.15,2013-08-31 16:42:00,
2013-08-31 12:47:00,77.3,72.8,29.83,West,278,3.0,5.0,86,0.00,,,0.00,Wunderground v.1.15,2013-08-31 16:47:00,
2013-08-31 12:53:00,77.5,72.6,29.82,WSW,239,3.0,5.0,85,0.00,,,0.00,Wunderground v.1.15,2013-08-31 16:53:00,
2013-08-31 12:59:00,77.5,72.6,29.82,SSW,201,3.0,7.0,85,0.00,,,0.00,Wunderground v.1.15,2013-08-31 16:59:00,
2013-08-31 13:05:00,77.4,72.9,29.82,SSW,195,3.0,6.0,86,0.00,,,0.00,Wunderground v.1.15,2013-08-31 17:05:00,
2013-08-31 13:11:00,77.1,72.2,29.82,West,259,4.0,7.0,85,0.00,,,0.00,Wunderground v.1.15,2013-08-31 17:11:00,
2013-08-31 13:17:00,77.1,72.6,29.82,WSW,246,4.0,10.0,86,0.00,,,0.00,Wunderground v.1.15,2013-08-31 17:17:00,
2013-08-31 13:23:00,77.1,72.6,29.82,South,186,4.0,6.0,86,0.00,,,0.00,Wunderground v.1.15,2013-08-31 17:23:00,
2013-08-31 13:29:00,77.4,72.9,29.82,SSW,208,4.0,6.0,86,0.00,,,0.00,Wunderground v.1.15,2013-08-31 17:29:00,
2013-08-31 13:35:00,77.6,72.7,29.82,WNW,288,4.0,7.0,85,0.00,,,0.00,Wunderground v.1.15,2013-08-31 17:35:00,
2013-08-31 13:41:00,77.8,72.6,29.82,SSW,195,4.0,5.0,84,0.00,,,0.00,Wunderground v.1.15,2013-08-31 17:41:00,
2013-08-31 13:47:00,77.6,72.4,29.82,WSW,255,4.0,6.0,84,0.00,,,0.00,Wunderground v.1.15,2013-08-31 17:47:00,
2013-08-31 13:53:00,77.5,72.6,29.82,SW,236,4.0,5.0,85,0.00,,,0.00,Wunderground v.1.15,2013-08-31 17:53:00,
2013-08-31 13:58:00,77.2,72.3,29.82,SW,232,3.0,5.0,85,0.00,,,0.00,Wunderground v.1.15,2013-08-31 17:58:00,
2013-08-31 14:04:00,77.1,72.6,29.82,WSW,242,3.0,6.0,86,0.00,,,0.00,Wunderground v.1.15,2013-08-31 18:04:00,
2013-08-31 14:10:00,76.7,72.2,29.82,WSW,239,4.0,6.0,86,0.00,,,0.00,Wunderground v.1.15,2013-08-31 18:10:00,
2013-08-31 14:16:00,76.6,72.4,29.82,SSW,195,3.0,6.0,87,0.00,,,0.00,Wunderground v.1.15,2013-08-31 18:16:00,
2013-08-31 14:21:00,76.8,72.6,29.81,West,273,2.0,5.0,87,0.00,,,0.00,Wunderground v.1.15,2013-08-31 18:21:00,
2013-08-31 14:27:00,76.9,72.7,29.81,SW,232,2.0,5.0,87,0.00,,,0.00,Wunderground v.1.15,2013-08-31 18:27:00,
2013-08-31 14:33:00,76.9,72.7,29.81,WSW,239,2.0,5.0,87,0.00,,,0.00,Wunderground v.1.15,2013-08-31 18:33:00,
2013-08-31 14:38:00,77.0,73.2,29.81,SW,219,2.0,5.0,88,0.00,,,0.00,Wunderground v.1.15,2013-08-31 18:38:00,
2013-08-31 14:43:00,77.1,72.9,29.81,SSE,149,2.0,6.0,87,0.00,,,0.00,Wunderground v.1.15,2013-08-31 18:43:00,
2013-08-31 14:49:00,76.7,72.5,29.81,SW,219,4.0,6.0,87,0.00,,,0.00,Wunderground v.1.15,2013-08-31 18:49:00,
2013-08-31 14:54:00,76.7,72.9,29.81,WSW,245,3.0,5.0,88,0.00,,,0.00,Wunderground v.1.15,2013-08-31 18:54:00,
2013-08-31 15:00:00,76.5,72.7,29.81,SSE,162,3.0,3.0,88,0.00,,,0.00,Wunderground v.1.15,2013-08-31 19:00:00,
2013-08-31 15:05:00,76.4,72.6,29.81,SSW,203,3.0,5.0,88,0.00,,,0.00,Wunderground v.1.15,2013-08-31 19:05:00,
2013-08-31 15:11:00,76.2,72.4,29.81,SSE,159,3.0,5.0,88,0.00,,,0.00,Wunderground v.1.15,2013-08-31 19:11:00,
2013-08-31 15:17:00,76.2,72.7,29.81,SW,222,3.0,5.0,89,0.00,,,0.00,Wunderground v.1.15,2013-08-31 19:17:00,
2013-08-31 15:23:00,76.2,72.7,29.81,WSW,242,2.0,5.0,89,0.00,,,0.00,Wunderground v.1.15,2013-08-31 19:23:00,
2013-08-31 15:29:00,76.3,72.8,29.82,SSW,194,1.0,5.0,89,0.00,,,0.00,Wunderground v.1.15,2013-08-31 19:29:00,
2013-08-31 15:35:00,76.3,72.8,29.81,West,266,2.0,5.0,89,0.00,,,0.00,Wunderground v.1.15,2013-08-31 19:35:00,
2013-08-31 15:41:00,76.4,72.9,29.81,South,183,2.0,5.0,89,0.00,,,0.00,Wunderground v.1.15,2013-08-31 19:41:00,
2013-08-31 15:47:00,76.5,72.7,29.81,WSW,238,2.0,5.0,88,0.00,,,0.00,Wunderground v.1.15,2013-08-31 19:47:00,
2013-08-31 15:53:00,76.6,72.8,29.81,SSW,204,3.0,6.0,88,0.00,,,0.00,Wunderground v.1.15,2013-08-31 19:53:00,
2013-08-31 15:59:00,76.8,73.3,29.81,SW,229,3.0,6.0,89,0.00,,,0.00,Wunderground v.1.15,2013-08-31 19:59:00,
2013-08-31 16:05:00,76.8,73.0,29.81,SW,215,2.0,6.0,88,0.00,,,0.00,Wunderground v.1.15,2013-08-31 20:05:00,
2013-08-31 16:11:00,76.7,72.9,29.81,SW,221,2.0,5.0,88,0.00,,,0.00,Wunderground v.1.15,2013-08-31 20:11:00,
2013-08-31 16:17:00,76.5,72.7,29.81,SW,219,2.0,6.0,88,0.00,,,0.00,Wunderground v.1.15,2013-08-31 20:17:00,
2013-08-31 16:23:00,76.4,72.9,29.80,SSW,193,2.0,5.0,89,0.00,,,0.00,Wunderground v.1.15,2013-08-31 20:23:00,
2013-08-31 16:29:00,76.4,72.9,29.80,SSW,200,1.0,5.0,89,0.00,,,0.00,Wunderground v.1.15,2013-08-31 20:29:00,
2013-08-31 16:35:00,76.5,73.0,29.80,SSW,203,1.0,5.0,89,0.00,,,0.00,Wunderground v.1.15,2013-08-31 20:35:00,
2013-08-31 16:40:00,76.5,73.0,29.80,SW,221,1.0,5.0,89,0.00,,,0.00,Wunderground v.1.15,2013-08-31 20:40:00,
2013-08-31 16:46:00,76.7,73.2,29.80,South,191,1.0,6.0,89,0.00,,,0.00,Wunderground v.1.15,2013-08-31 20:46:00,
2013-08-31 16:52:00,76.8,73.0,29.80,SSW,205,3.0,6.0,88,0.00,,,0.00,Wunderground v.1.15,2013-08-31 20:52:00,
2013-08-31 16:58:00,76.7,72.5,29.80,South,186,4.0,8.0,87,0.00,,,0.00,Wunderground v.1.15,2013-08-31 20:58:00,
2013-08-31 17:04:00,76.7,72.9,29.80,SSW,201,4.0,5.0,88,0.00,,,0.00,Wunderground v.1.15,2013-08-31 21:04:00,
2013-08-31 17:10:00,76.6,73.1,29.80,WSW,252,3.0,3.0,89,0.00,,,0.00,Wunderground v.1.15,2013-08-31 21:10:00,
2013-08-31 17:16:00,76.5,73.0,29.80,SSW,197,2.0,5.0,89,0.00,,,0.00,Wunderground v.1.15,2013-08-31 21:16:00,
2013-08-31 17:22:00,76.2,72.7,29.80,SSW,203,2.0,5.0,89,0.00,,,0.00,Wunderground v.1.15,2013-08-31 21:22:00,
2013-08-31 17:28:00,76.0,72.5,29.80,SSW,194,3.0,7.0,89,0.00,,,0.00,Wunderground v.1.15,2013-08-31 21:28:00,
2013-08-31 17:33:00,75.8,72.7,29.79,South,181,3.0,5.0,90,0.00,,,0.00,Wunderground v.1.15,2013-08-31 21:33:00,
2013-08-31 17:39:00,75.6,72.5,29.79,SSW,207,3.0,5.0,90,0.00,,,0.00,Wunderground v.1.15,2013-08-31 21:39:00,
2013-08-31 17:45:00,75.5,72.7,29.80,SSW,212,2.0,5.0,91,0.00,,,0.00,Wunderground v.1.15,2013-08-31 21:45:00,
2013-08-31 17:51:00,75.4,72.6,29.80,SSW,211,1.0,5.0,91,0.00,,,0.00,Wunderground v.1.15,2013-08-31 21:51:00,
2013-08-31 17:57:00,75.3,72.5,29.80,SW,215,2.0,6.0,91,0.00,,,0.00,Wunderground v.1.15,2013-08-31 21:57:00,
2013-08-31 18:03:00,75.1,72.3,29.80,SW,216,3.0,5.0,91,0.00,,,0.00,Wunderground v.1.15,2013-08-31 22:03:00,
2013-08-31 18:09:00,74.9,72.1,29.80,SSW,212,3.0,5.0,91,0.00,,,0.00,Wunderground v.1.15,2013-08-31 22:09:00,
2013-08-31 18:15:00,74.7,72.2,29.80,SW,218,3.0,5.0,92,0.00,,,0.00,Wunderground v.1.15,2013-08-31 22:15:00,
2013-08-31 18:21:00,74.6,72.1,29.80,WSW,244,2.0,5.0,92,0.00,,,0.00,Wunderground v.1.15,2013-08-31 22:21:00,
2013-08-31 18:27:00,74.5,72.3,29.80,SW,232,2.0,5.0,93,0.00,,,0.00,Wunderground v.1.15,2013-08-31 22:27:00,
2013-08-31 18:33:00,74.3,72.1,29.80,SSW,198,3.0,5.0,93,0.00,,,0.00,Wunderground v.1.15,2013-08-31 22:33:00,
2013-08-31 18:38:00,74.2,72.0,29.79,WSW,248,3.0,5.0,93,0.00,,,0.00,Wunderground v.1.15,2013-08-31 22:38:00,
2013-08-31 18:44:00,74.1,71.9,29.80,WSW,242,2.0,5.0,93,0.00,,,0.00,Wunderground v.1.15,2013-08-31 22:44:00,
2013-08-31 18:50:00,74.0,71.8,29.80,WSW,252,1.0,1.0,93,0.00,,,0.00,Wunderground v.1.15,2013-08-31 22:50:00,
2013-08-31 18:56:00,73.9,71.7,29.80,SSW,210,1.0,5.0,93,0.00,,,0.00,Wunderground v.1.15,2013-08-31 22:56:00,
2013-08-31 19:02:00,73.8,71.6,29.80,SSW,193,1.0,5.0,93,0.00,,,0.00,Wunderground v.1.15,2013-08-31 23:02:00,
2013-08-31 19:08:00,73.6,71.4,29.80,SW,236,2.0,5.0,93,0.00,,,0.00,Wunderground v.1.15,2013-08-31 23:08:00,
2013-08-31 19:13:00,73.5,71.4,29.80,SSW,211,2.0,5.0,93,0.00,,,0.00,Wunderground v.1.15,2013-08-31 23:13:00,
2013-08-31 19:19:00,73.4,71.6,29.80,SW,226,3.0,5.0,94,0.00,,,0.00,Wunderground v.1.15,2013-08-31 23:19:00,
2013-08-31 19:25:00,73.3,71.5,29.80,WSW,243,3.0,5.0,94,0.00,,,0.00,Wunderground v.1.15,2013-08-31 23:25:00,
2013-08-31 19:31:00,73.2,71.4,29.80,SSW,200,2.0,5.0,94,0.00,,,0.00,Wunderground v.1.15,2013-08-31 23:31:00,
2013-08-31 19:37:00,73.1,71.3,29.80,SSW,193,2.0,5.0,94,0.00,,,0.00,Wunderground v.1.15,2013-08-31 23:37:00,
2013-08-31 19:43:00,73.1,71.3,29.80,WSW,240,1.0,5.0,94,0.00,,,0.00,Wunderground v.1.15,2013-08-31 23:43:00,
2013-08-31 19:48:00,73.0,71.2,29.81,SW,221,1.0,5.0,94,0.00,,,0.00,Wunderground v.1.15,2013-08-31 23:48:00,
2013-08-31 19:54:00,72.9,71.1,29.81,SSW,204,1.0,5.0,94,0.00,,,0.00,Wunderground v.1.15,2013-08-31 23:54:00,
2013-08-31 19:59:00,72.9,71.1,29.81,SW,229,1.0,5.0,94,0.00,,,0.00,Wunderground v.1.15,2013-08-31 23:59:00,
2013-08-31 20:05:00,72.8,71.0,29.81,SW,232,2.0,5.0,94,0.00,,,0.00,Wunderground v.1.15,2013-09-01 00:05:00,
2013-08-31 20:11:00,72.7,70.9,29.82,WSW,242,3.0,5.0,94,0.00,,,0.00,Wunderground v.1.15,2013-09-01 00:11:00,
2013-08-31 20:17:00,72.6,71.1,29.81,SW,226,2.0,5.0,95,0.00,,,0.00,Wunderground v.1.15,2013-09-01 00:17:00,
2013-08-31 20:23:00,72.5,71.0,29.81,SW,224,2.0,5.0,95,0.00,,,0.00,Wunderground v.1.15,2013-09-01 00:23:00,
2013-08-31 20:29:00,72.4,70.9,29.82,WSW,249,2.0,5.0,95,0.00,,,0.00,Wunderground v.1.15,2013-09-01 00:29:00,
2013-08-31 20:35:00,72.3,70.8,29.82,SW,225,2.0,5.0,95,0.00,,,0.00,Wunderground v.1.15,2013-09-01 00:35:00,
2013-08-31 20:41:00,72.3,70.8,29.82,SW,229,2.0,5.0,95,0.00,,,0.00,Wunderground v.1.15,2013-09-01 00:41:00,
2013-08-31 20:47:00,72.2,70.7,29.82,SSW,210,2.0,6.0,95,0.00,,,0.00,Wunderground v.1.15,2013-09-01 00:47:00,
2013-08-31 20:53:00,72.2,70.7,29.82,SW,225,2.0,5.0,95,0.00,,,0.00,Wunderground v.1.15,2013-09-01 00:53:00,
2013-08-31 20:59:00,72.1,70.6,29.82,WSW,246,1.0,5.0,95,0.00,,,0.00,Wunderground v.1.15,2013-09-01 00:59:00,
2013-08-31 21:05:00,72.0,70.5,29.83,SW,233,2.0,5.0,95,0.00,,,0.00,Wunderground v.1.15,2013-09-01 01:05:00,
2013-08-31 21:11:00,71.9,70.4,29.83,SW,236,1.0,5.0,95,0.00,,,0.00,Wunderground v.1.15,2013-09-01 01:11:00,
2013-08-31 21:17:00,71.9,70.4,29.83,SSW,212,2.0,5.0,95,0.00,,,0.00,Wunderground v.1.15,2013-09-01 01:17:00,
2013-08-31 21:23:00,71.9,70.4,29.82,SSW,200,2.0,5.0,95,0.00,,,0.00,Wunderground v.1.15,2013-09-01 01:23:00,
2013-08-31 21:28:00,71.9,70.4,29.83,South,170,2.0,5.0,95,0.00,,,0.00,Wunderground v.1.15,2013-09-01 01:28:00,
2013-08-31 21:34:00,71.8,70.3,29.83,WSW,238,3.0,5.0,95,0.00,,,0.00,Wunderground v.1.15,2013-09-01 01:34:00,
2013-08-31 21:39:00,71.8,70.3,29.83,SW,220,2.0,5.0,95,0.00,,,0.00,Wunderground v.1.15,2013-09-01 01:39:00,
2013-08-31 21:44:00,71.8,70.3,29.83,SW,216,1.0,5.0,95,0.00,,,0.00,Wunderground v.1.15,2013-09-01 01:44:00,
2013-08-31 21:50:00,71.7,70.5,29.83,WSW,248,1.0,5.0,96,0.00,,,0.00,Wunderground v.1.15,2013-09-01 01:50:00,
2013-08-31 21:55:00,71.7,70.5,29.83,SSW,201,2.0,5.0,96,0.00,,,0.00,Wunderground v.1.15,2013-09-01 01:55:00,
2013-08-31 22:00:00,71.6,70.4,29.83,SW,233,2.0,6.0,96,0.00,,,0.00,Wunderground v.1.15,2013-09-01 02:00:00,
2013-08-31 22:06:00,71.6,70.4,29.83,WSW,249,2.0,6.0,96,0.00,,,0.00,Wunderground v.1.15,2013-09-01 02:06:00,
2013-08-31 22:11:00,71.5,70.3,29.83,SSW,207,2.0,5.0,96,0.00,,,0.00,Wunderground v.1.15,2013-09-01 02:11:00,
2013-08-31 22:17:00,71.4,70.2,29.83,WSW,239,2.0,5.0,96,0.00,,,0.00,Wunderground v.1.15,2013-09-01 02:17:00,
2013-08-31 22:22:00,71.3,70.1,29.83,WSW,246,1.0,5.0,96,0.00,,,0.00,Wunderground v.1.15,2013-09-01 02:22:00,
2013-08-31 22:28:00,71.2,70.0,29.83,South,186,1.0,5.0,96,0.00,,,0.00,Wunderground v.1.15,2013-09-01 02:28:00,
2013-08-31 22:34:00,71.2,70.0,29.83,SW,222,1.0,5.0,96,0.00,,,0.00,Wunderground v.1.15,2013-09-01 02:34:00,
2013-08-31 22:40:00,71.1,69.9,29.83,SSW,201,1.0,1.0,96,0.00,,,0.00,Wunderground v.1.15,2013-09-01 02:40:00,
2013-08-31 22:46:00,71.0,69.8,29.82,SW,221,1.0,5.0,96,0.00,,,0.00,Wunderground v.1.15,2013-09-01 02:46:00,
2013-08-31 22:52:00,70.9,69.7,29.83,West,259,0.0,5.0,96,0.00,,,0.00,Wunderground v.1.15,2013-09-01 02:52:00,
2013-08-31 22:57:00,70.9,69.7,29.83,WSW,254,0.0,5.0,96,0.00,,,0.00,Wunderground v.1.15,2013-09-01 02:57:00,
2013-08-31 23:02:00,70.8,69.6,29.83,SW,214,0.0,5.0,96,0.00,,,0.00,Wunderground v.1.15,2013-09-01 03:02:00,
2013-08-31 23:08:00,70.8,69.6,29.84,SSW,208,0.0,5.0,96,0.00,,,0.00,Wunderground v.1.15,2013-09-01 03:08:00,
2013-08-31 23:14:00,70.7,69.5,29.83,SSW,212,0.0,2.0,96,0.00,,,0.00,Wunderground v.1.15,2013-09-01 03:14:00,
2013-08-31 23:19:00,70.7,69.5,29.83,SSW,207,1.0,2.0,96,0.00,,,0.00,Wunderground v.1.15,2013-09-01 03:19:00,
2013-08-31 23:24:00,70.6,69.4,29.83,SSW,203,1.0,3.0,96,0.00,,,0.00,Wunderground v.1.15,2013-09-01 03:24:00,
2013-08-31 23:29:00,70.5,69.3,29.83,SW,231,1.0,3.0,96,0.00,,,0.00,Wunderground v.1.15,2013-09-01 03:29:00,
2013-08-31 23:35:00,70.5,69.3,29.83,SW,229,1.0,3.0,96,0.00,,,0.00,Wunderground v.1.15,2013-09-01 03:35:00,
2013-08-31 23:41:00,70.5,69.3,29.83,SW,221,2.0,2.0,96,0.00,,,0.00,Wunderground v.1.15,2013-09-01 03:41:00,
2013-08-31 23:46:00,70.4,69.2,29.83,SW,214,2.0,2.0,96,0.00,,,0.00,Wunderground v.1.15,2013-09-01 03:46:00,
2013-08-31 23:52:00,70.3,69.4,29.83,SSW,204,1.0,3.0,97,0.00,,,0.00,Wunderground v.1.15,2013-09-01 03:52:00,
2013-08-31 23:58:00,70.3,69.4,29.83,SW,215,1.0,4.0,97,0.00,,,0.00,Wunderground v.1.15,2013-09-01 03:58:00,